TimeCDT,TemperatureF,Dew PointF,Humidity,Sea Level PressureIn,VisibilityMPH,Wind Direction,Wind SpeedMPH,Gust SpeedMPH,PrecipitationIn,Events,Conditions,WindDirDegrees,DateUTC
12:15 AM,57.4,55.4,93,30.03,10.0,NNW,5.8,-,N/A,,Overcast,330,2013-10-19 05:15:00
12:35 AM,56.5,54.1,92,30.03,10.0,NNW,3.5,-,N/A,,Mostly Cloudy,330,2013-10-19 05:35:00
12:55 AM,55.8,53.2,91,30.03,10.0,NNW,3.5,-,N/A,,Scattered Clouds,330,2013-10-19 05:55:00
1:15 AM,55.6,53.6,93,30.03,10.0,Calm,Calm,-,N/A,,Clear,0,2013-10-19 06:15:00
1:35 AM,55.0,53.1,93,30.04,10.0,Calm,Calm,-,N/A,,Mostly Cloudy,0,2013-10-19 06:35:00
1:55 AM,55.4,53.1,92,30.04,10.0,WNW,5.8,-,N/A,,Scattered Clouds,300,2013-10-19 06:55:00
2:15 AM,55.4,53.1,92,30.05,10.0,NW,3.5,-,N/A,,Clear,320,2013-10-19 07:15:00
2:35 AM,55.4,53.1,92,30.05,10.0,NW,5.8,-,N/A,,Clear,310,2013-10-19 07:35:00
2:55 AM,55.8,53.2,91,30.06,10.0,NW,8.1,-,N/A,,Mostly Cloudy,320,2013-10-19 07:55:00
3:15 AM,55.9,53.2,91,30.06,10.0,NNW,11.5,18.4,N/A,,Overcast,340,2013-10-19 08:15:00
3:35 AM,54.9,51.3,88,30.07,10.0,NW,15.0,19.6,N/A,,Overcast,320,2013-10-19 08:35:00
3:55 AM,53.2,49.3,86,30.08,10.0,NNW,12.7,18.4,N/A,,Overcast,330,2013-10-19 08:55:00
4:15 AM,52.9,48.6,85,30.08,10.0,NW,11.5,17.3,N/A,,Overcast,320,2013-10-19 09:15:00
4:35 AM,52.3,47.8,85,30.08,10.0,NW,10.4,-,N/A,,Overcast,310,2013-10-19 09:35:00
4:55 AM,51.8,46.9,83,30.09,10.0,NW,9.2,-,N/A,,Overcast,320,2013-10-19 09:55:00
5:15 AM,51.3,45.9,82,30.10,10.0,NW,12.7,17.3,N/A,,Overcast,320,2013-10-19 10:15:00
5:35 AM,50.4,45.3,83,30.11,10.0,NW,10.4,-,N/A,,Overcast,320,2013-10-19 10:35:00
5:55 AM,50.2,45.0,82,30.11,10.0,NW,9.2,-,N/A,,Overcast,320,2013-10-19 10:55:00
6:15 AM,50.0,44.6,82,30.12,10.0,NW,12.7,19.6,N/A,,Overcast,320,2013-10-19 11:15:00
6:35 AM,49.3,44.6,84,30.12,10.0,NW,9.2,-,N/A,,Overcast,320,2013-10-19 11:35:00
6:55 AM,49.3,44.6,84,30.13,10.0,NW,6.9,-,N/A,,Overcast,320,2013-10-19 11:55:00
7:15 AM,48.4,43.3,83,30.14,10.0,NW,9.2,16.1,N/A,,Overcast,320,2013-10-19 12:15:00
7:35 AM,45.9,41.5,85,30.15,10.0,NNW,10.4,-,N/A,,Scattered Clouds,340,2013-10-19 12:35:00
7:55 AM,46.0,41.7,85,30.15,10.0,NNW,9.2,18.4,N/A,,Mostly Cloudy,330,2013-10-19 12:55:00
8:15 AM,46.4,41.2,82,30.16,10.0,NW,10.4,-,N/A,,Overcast,310,2013-10-19 13:15:00
8:35 AM,46.4,41.0,81,30.17,10.0,NW,12.7,-,N/A,,Overcast,310,2013-10-19 13:35:00
8:55 AM,46.8,40.6,79,30.18,10.0,NW,10.4,20.7,N/A,,Overcast,320,2013-10-19 13:55:00
9:15 AM,46.6,40.3,79,30.18,10.0,NW,13.8,18.4,N/A,,Overcast,320,2013-10-19 14:15:00
9:35 AM,46.4,40.1,79,30.19,10.0,NNW,11.5,18.4,N/A,,Mostly Cloudy,330,2013-10-19 14:35:00
9:55 AM,48.9,40.8,74,30.20,10.0,NW,10.4,-,N/A,,Clear,320,2013-10-19 14:55:00
10:15 AM,49.8,40.6,71,30.20,10.0,NW,11.5,-,N/A,,Clear,320,2013-10-19 15:15:00
10:35 AM,51.1,39.6,65,30.21,10.0,NNW,13.8,17.3,N/A,,Clear,330,2013-10-19 15:35:00
10:55 AM,51.6,38.8,62,30.20,10.0,NW,12.7,-,N/A,,Clear,320,2013-10-19 15:55:00
11:15 AM,53.1,37.8,56,30.20,10.0,NNW,11.5,18.4,N/A,,Clear,330,2013-10-19 16:15:00
11:35 AM,54.7,38.3,54,30.20,10.0,NNW,11.5,16.1,N/A,,Clear,330,2013-10-19 16:35:00
11:55 AM,55.9,38.3,52,30.20,10.0,NNW,10.4,16.1,N/A,,Clear,340,2013-10-19 16:55:00
1:55 PM,61.7,37.0,40,30.16,10.0,North,10.4,-,N/A,,Clear,350,2013-10-19 18:55:00
2:15 PM,62.2,37.4,40,30.16,10.0,NNW,6.9,-,N/A,,Clear,340,2013-10-19 19:15:00
2:55 PM,63.1,37.6,39,30.14,10.0,NW,5.8,-,N/A,,Clear,320,2013-10-19 19:55:00
3:15 PM,63.1,37.9,39,30.14,10.0,NNW,8.1,-,N/A,,Clear,340,2013-10-19 20:15:00
3:35 PM,64.0,37.8,38,30.13,10.0,North,10.4,17.3,N/A,,Clear,350,2013-10-19 20:35:00
3:55 PM,63.9,37.4,38,30.13,10.0,North,9.2,-,N/A,,Clear,10,2013-10-19 20:55:00
4:15 PM,64.2,37.8,38,30.13,10.0,NNW,9.2,-,N/A,,Clear,340,2013-10-19 21:15:00
4:35 PM,64.6,38.5,38,30.13,10.0,North,8.1,-,N/A,,Clear,360,2013-10-19 21:35:00
4:55 PM,63.9,37.6,38,30.13,10.0,NNE,5.8,-,N/A,,Clear,30,2013-10-19 21:55:00
5:15 PM,63.5,37.9,39,30.13,10.0,NNW,8.1,-,N/A,,Clear,340,2013-10-19 22:15:00
5:35 PM,63.5,38.5,40,30.12,10.0,NNW,5.8,-,N/A,,Clear,340,2013-10-19 22:35:00
5:55 PM,62.4,37.9,40,30.12,10.0,NW,4.6,-,N/A,,Clear,320,2013-10-19 22:55:00
6:15 PM,61.2,40.1,46,30.12,10.0,North,5.8,-,N/A,,Clear,350,2013-10-19 23:15:00
6:35 PM,59.5,42.6,54,30.12,10.0,NNW,3.5,-,N/A,,Clear,330,2013-10-19 23:35:00
6:55 PM,58.3,41.7,54,30.11,10.0,Calm,Calm,-,N/A,,Clear,0,2013-10-19 23:55:00
7:15 PM,57.4,41.9,56,30.11,10.0,Calm,Calm,-,N/A,,Clear,0,2013-10-20 00:15:00
7:35 PM,54.5,43.5,66,30.12,10.0,Calm,Calm,-,N/A,,Clear,0,2013-10-20 00:35:00
7:55 PM,51.3,46.2,83,30.12,10.0,Calm,Calm,-,N/A,,Clear,0,2013-10-20 00:55:00
8:15 PM,50.4,44.8,81,30.12,10.0,Calm,Calm,-,N/A,,Clear,0,2013-10-20 01:15:00
8:35 PM,49.3,44.8,84,30.12,10.0,Calm,Calm,-,N/A,,Clear,0,2013-10-20 01:35:00
8:55 PM,49.3,44.8,84,30.13,10.0,Calm,Calm,-,N/A,,Clear,0,2013-10-20 01:55:00
9:15 PM,49.1,43.7,82,30.12,10.0,Calm,Calm,-,N/A,,Clear,0,2013-10-20 02:15:00
9:35 PM,47.5,44.2,89,30.12,10.0,Calm,Calm,-,N/A,,Clear,0,2013-10-20 02:35:00
9:55 PM,46.9,44.2,90,30.12,10.0,Calm,Calm,-,N/A,,Clear,0,2013-10-20 02:55:00
10:15 PM,46.2,42.6,87,30.12,7.0,Calm,Calm,-,N/A,,Clear,0,2013-10-20 03:15:00
10:35 PM,45.9,43.3,91,30.12,10.0,Calm,Calm,-,N/A,,Clear,0,2013-10-20 03:35:00
10:55 PM,45.0,41.9,89,30.12,10.0,Calm,Calm,-,N/A,,Clear,0,2013-10-20 03:55:00
11:15 PM,44.6,42.1,91,30.12,10.0,Calm,Calm,-,N/A,,Clear,0,2013-10-20 04:15:00
11:35 PM,44.4,41.4,89,30.12,10.0,Calm,Calm,-,N/A,,Clear,0,2013-10-20 04:35:00
11:55 PM,43.5,41.0,91,30.11,10.0,Calm,Calm,-,N/A,,Clear,0,2013-10-20 04:55:00